Regional Weather Roundup
Issued by NWS Portland, ME

Home | Current Version | Previous Version | Text Only | Print | Product List | Glossary On
Versions: 1 2 3 4 5 6 7 8 9 10 11 12 13 14 15 16 17 18 19 20 21 22 23 24 25 26 27 28 29 30 31 32 33 34 35 36 37 38 39 40 41 42 43 44 45 46 47 48 49 50
195
ASUS41 KGYX 231910
RWRGYX
WEATHER ROUNDUP FOR MAINE AND NEW HAMPSHIRE
NATIONAL WEATHER SERVICE GRAY ME
300 PM EDT SUN JUL 23 2017

MEZ002-005-006-010-012-015-018-020-021-024-026-027-029-232000-
MAINE

CITY           SKY/WX    TMP DP  RH WIND       PRES   REMARKS
PORTLAND       PTSUNNY   70  42  36 S9        29.89F
SANFORD          N/A     72  45  37 VRB7      29.90F
BAR HARBOR     MOSUNNY   73  43  33 W8        29.87R
WISCASSET      SUNNY     71  44  37 S9        29.90S
ROCKLAND       SUNNY     67  44  43 S9        29.89R
FRYEBURG       MOSUNNY   75  53  46 CALM      29.88F
LEWISTONAUBURN MOSUNNY   73  50  44 CALM      29.88S
AUGUSTA        MOSUNNY   75  46  35 VRB7      29.88S
WATERVILLE     SUNNY     72  47  40 CALM      29.86S
BANGOR         PTSUNNY   74  45  35 VRB6      29.87S
GREENVILLE       N/A     68  45  43 VRB7      29.87F
MILLINOCKET    SUNNY     72  40  31 VRB5G18   29.87S
HOULTON        PTSUNNY   71  42  35 N14       29.84F
PRESQUE ISLE   MOSUNNY   69  43  38 N6        29.86S
FRENCHVILLE    MOSUNNY   66  43  43 W10G21    29.85S
CARIBOU        PTSUNNY   69  43  38 NW10      29.85R
$$

NHZ002-005-008-009-011-012-014-232000-
NEW HAMPSHIRE

CITY           SKY/WX    TMP DP  RH WIND       PRES   REMARKS
PORTSMOUTH     PTSUNNY   71  47  41 E6        29.89S
ROCHESTER      MOSUNNY   75  49  39 VRB7      29.89F
NASHUA         PTSUNNY   78  52  40 SE12      29.89F
MANCHESTER     PTSUNNY   75  49  39 SE10      29.88S
CONCORD        PTSUNNY   75  53  46 VRB6      29.88S
LACONIA        MOSUNNY   74  53  48 W3        29.89S
PLYMOUTH       FAIR      75  54  48 S3        29.87S
BERLIN         SUNNY     76  46  34 VRB6      29.88S
WHITEFIELD     MOSUNNY   74  52  46 W5        29.88F
JAFFREY        CLOUDY    73  53  49 S6        29.90F
KEENE          CLOUDY    75  56  51 CALM      29.88S
LEBANON        CLOUDY    77  57  50 VRB5      29.86S
MT WASHINGTON  PTSUNNY   52  45  76 W18G25      N/A
$$

VTZ005-007-008-232000-
VERMONT

CITY           SKY/WX    TMP DP  RH WIND       PRES   REMARKS
ST JOHNSBURY     N/A     75  54  47 MISG      29.85F
MONTPELIER     MOSUNNY   74  50  42 N3        29.92S
BURLINGTON     PTSUNNY   77  54  44 N7        29.87F
$$

MAZ007-012-024-CTZ003-RIZ002-NYZ038-NYZ072-232000-
SOUTHERN NEW ENGLAND AND NY

CITY           SKY/WX    TMP DP  RH WIND       PRES   REMARKS
BOSTON         CLOUDY    70  54  56 E13       29.90S
WORCESTER      MOSUNNY   72  47  40 CALM      29.90S
NANTUCKET      SUNNY     72  60  66 NE16      29.85S
PROVIDENCE     PTSUNNY   77  54  44 E7        29.87F
HARTFORD       PTSUNNY   80  58  46 NE6       29.85S
ALBANY         CLOUDY    77  64  64 N5        29.84S
NEW YORK CITY  CLOUDY    77  70  79 NE5       29.82S
$$

ANZ081-ANZ082-ANZ150-NHZ014-MEZ023>029-232000-
COASTAL MARINE OBSERVATIONS

STATION/POSITION TIME  TEMP    WIND        PRES    WAVE
                       AIR SEA DIR/SP/G            HT/PER
                 (UTC) (F)     (DEG/KT/KT) (MB)    (FT/S)
MOUNT DESERT ROC 1900   61                 1012.2R
MATINICUS ROCK   1800   62     140/  9/  9 1011.9F
ISLE OF SHOALS   1800   65      70/  5/  6 1012.5F
JEFFREYS LEDGE   1806      66                N/A     4/ 6
CASHES LEDGE BUO 1750   65 65              1012.4    3/ 5
GEORGES BANK BUO 1750   62 64              1008.8    2/ 7
$$

.............KEY..............
   WCI - WIND CHILL
   TC  - TEMPERATURE IN CELSIUS
   VSB - VISIBILITY IN MILES
   HX  - HEAT INDEX
   FAIR- INDICATES FEW OR NO CLOUDS BELOW 12,000 FT, WITH NO
         SIGNIFICANT WEATHER AND/OR OBSTRUCTIONS TO VISIBILITY.






USA.gov is the U.S. government's official web portal to all federal, state and local government web resources and services.